TimeCST,TemperatureF,Dew PointF,Humidity,Sea Level PressureIn,VisibilityMPH,Wind Direction,Wind SpeedMPH,Gust SpeedMPH,PrecipitationIn,Events,Conditions,WindDirDegrees,DateUTC
12:55 AM,31.6,25.0,76,30.15,10.0,NNE,9.2,-,N/A,,Clear,30,2013-02-19 06:55:00
1:55 AM,29.1,23.7,80,30.17,10.0,NNE,6.9,-,N/A,,Clear,30,2013-02-19 07:55:00
2:55 AM,30.0,23.9,78,30.17,10.0,NNE,8.1,-,N/A,,Clear,30,2013-02-19 08:55:00
3:55 AM,29.7,24.6,81,30.18,10.0,NNE,8.1,-,N/A,,Clear,30,2013-02-19 09:55:00
4:55 AM,27.5,23.2,84,30.19,10.0,NNE,4.6,-,N/A,,Clear,20,2013-02-19 10:55:00
5:55 AM,27.1,22.6,83,30.23,10.0,NNE,6.9,-,N/A,,Clear,20,2013-02-19 11:55:00
6:55 AM,27.9,23.4,83,30.27,10.0,NNE,3.5,-,N/A,,Clear,20,2013-02-19 12:55:00
7:55 AM,29.1,25.3,86,30.29,10.0,North,4.6,-,N/A,,Clear,10,2013-02-19 13:55:00
8:55 AM,35.1,27.7,74,30.32,10.0,Calm,Calm,-,N/A,,Clear,0,2013-02-19 14:55:00
9:55 AM,43.3,27.7,54,30.30,10.0,East,10.4,-,N/A,,Clear,100,2013-02-19 15:55:00
10:55 AM,46.8,27.5,47,30.32,10.0,SE,11.5,-,N/A,,Clear,140,2013-02-19 16:55:00
11:55 AM,49.8,27.3,42,30.31,10.0,ESE,9.2,18.4,N/A,,Partly Cloudy,110,2013-02-19 17:55:00
12:55 PM,53.1,26.6,36,30.27,10.0,SE,13.8,19.6,N/A,,Clear,130,2013-02-19 18:55:00
1:55 PM,54.7,25.0,32,30.23,10.0,SE,15.0,-,N/A,,Clear,130,2013-02-19 19:55:00
2:55 PM,55.9,21.7,27,30.18,10.0,ESE,17.3,21.9,N/A,,Clear,110,2013-02-19 20:55:00
3:55 PM,56.5,22.3,27,30.14,10.0,ESE,17.3,-,N/A,,Clear,110,2013-02-19 21:55:00
4:55 PM,54.1,23.2,30,30.15,10.0,ESE,16.1,-,N/A,,Clear,110,2013-02-19 22:55:00
6:55 PM,47.7,25.9,43,30.14,10.0,ESE,9.2,-,N/A,,Overcast,110,2013-02-20 00:55:00
7:55 PM,48.0,25.7,42,30.14,10.0,East,11.5,-,N/A,,Clear,100,2013-02-20 01:55:00
8:55 PM,49.3,24.6,38,30.14,10.0,ESE,15.0,-,N/A,,Mostly Cloudy,110,2013-02-20 02:55:00
9:55 PM,48.6,23.5,37,30.14,10.0,ESE,15.0,-,N/A,,Partly Cloudy,120,2013-02-20 03:55:00
10:55 PM,48.0,24.3,39,30.12,10.0,ESE,17.3,-,N/A,,Mostly Cloudy,120,2013-02-20 04:55:00
11:55 PM,48.4,24.1,39,30.10,10.0,ESE,17.3,-,N/A,,Overcast,110,2013-02-20 05:55:00